sat.trackr.live / text

‹ back to catalog

STARLINK-32242

NORAD 60429 · 2024-144E

PAYLOAD ACTIVE UNKNOWN

§ Identity

Operator
Country
US
Launch date
2024-08-12
Launch site
AFETR
Launch vehicle
Mass (kg)
RCS (m²)

Purposes: comms

External: N2YO · Heavens-Above · Gunter

§ Orbital elements

Epoch: 2026-05-25T05:11:34.763712Z

Period
94.11 min
Inclination
53.1607°
Eccentricity
0.0001185
Mean motion
15.30195924 rev/d
Perigee alt
474.4 km
Apogee alt
476.0 km
Semi-major
6,853.4 km
B*
5.5192e-5
RAAN
221.8235°
Arg perigee
74.9784°
Mean anomaly
285.1347°
Rev number
10,106

§ Raw data

STARLINK-322421 60429U 24144E   26145.21637458  .00001276  00000+0  55192-4 0  99912 60429  53.1607 221.8235 0001185  74.9784 285.1347 15.30195924101069

JSON: /api/v1/satellites/60429 · /tle

For live sub-satellite position, see the globe view (requires WebGL).

§ Visibility from observer

Set your observer location to see the next 7 days of passes ≥ 10°. The values pass through the URL so the page stays shareable.

No JS? Fill the form by hand. The geolocation button needs JavaScript.